Terminal Aerodrome Forecast
Issued by NWS

Home | Current Version | Previous Version | Text Only | Print | Product List | Glossary On
Versions: 1 2 3 4 5 6 7 8 9 10 11 12 13 14 15 16 17 18 19 20 21 22 23 24 25 26 27 28 29 30 31
000
FTUS43 KDLH 240500
TAFHIB
TAF
KHIB 240536Z 2406/2506 10010KT 5SM -RASN BR SCT005 OVC010
      TEMPO 2406/2408 2SM -RASN BR BKN005
     FM240800 11008KT 5SM -RA BR OVC010
     FM241500 11010KT 4SM -RA BR OVC007
     FM242200 10007KT 2SM -SNRA BR OVC007
     FM250300 VRB03KT 1 1/2SM -SNDZ BR OVC005=

USA.gov is the U.S. government's official web portal to all federal, state and local government web resources and services.